| time (UTC) | temp F | wind direction | speed MPH | gust MPH | rain 1hr in | rain 24hr in | rain mn in | humidity % | barometer mb |
| 20260509004617 | 68 | 289 | 17.0 | 28.0 | 0.00 | 0.00 | 0.00 | 28 | 998.2 |
| 20260509003809 | 69 | 304 | 17.0 | 24.0 | 0.00 | 0.00 | 0.00 | 29 | 998.1 |
| 20260509003003 | 69 | 295 | 17.0 | 23.0 | 0.00 | 0.00 | 0.00 | 29 | 998.2 |
| 20260509002806 | 69 | 321 | 15.0 | 23.0 | 0.00 | 0.00 | 0.00 | 29 | 998.1 |
| 20260509001819 | 70 | 321 | 14.0 | 24.0 | 0.00 | 0.00 | 0.00 | 30 | 998.1 |
| 20260509001602 | 69 | 300 | 11.0 | 24.0 | 0.00 | 0.00 | 0.00 | 31 | 998.2 |
| 20260509000752 | 70 | 278 | 18.0 | 26.0 | 0.00 | 0.00 | 0.00 | 30 | 998.1 |
| 20260509000003 | 70 | 307 | 16.0 | 24.0 | 0.00 | 0.00 | 0.00 | 29 | 998.2 |
| 20260508235719 | 70 | 297 | 15.0 | 28.0 | 0.00 | 0.00 | 0.00 | 29 | 998.2 |
| 20260508234649 | 70 | 302 | 17.0 | 28.0 | 0.00 | 0.00 | 0.00 | 29 | 998.1 |
| 20260508234603 | 70 | 301 | 18.0 | 29.0 | 0.00 | 0.00 | 0.00 | 29 | 998.2 |
| 20260508233628 | 71 | 298 | 13.0 | 19.0 | 0.00 | 0.00 | 0.00 | 31 | 998.2 |
| 20260508233003 | 70 | 302 | 16.0 | 24.0 | 0.00 | 0.00 | 0.00 | 29 | 998.2 |
| 20260508232651 | 71 | 316 | 17.0 | 26.0 | 0.00 | 0.00 | 0.00 | 30 | 998.1 |
| 20260508231647 | 71 | 322 | 19.0 | 29.0 | 0.00 | 0.00 | 0.00 | 29 | 998.2 |
| 20260508231602 | 71 | 296 | 17.0 | 30.0 | 0.00 | 0.00 | 0.00 | 29 | 998.2 |
| 20260508230043 | 71 | 278 | 21.0 | 29.0 | 0.00 | 0.00 | 0.00 | 29 | 998.3 |
| 20260508224605 | 72 | 316 | 14.0 | 25.0 | 0.00 | 0.00 | 0.00 | 30 | 998.3 |
| 20260508224602 | 72 | 311 | 15.0 | 28.0 | 0.00 | 0.00 | 0.00 | 30 | 998.3 |
| 20260508223006 | 71 | 311 | 22.0 | 28.0 | 0.00 | 0.00 | 0.00 | 29 | 998.2 |
| 20260508221602 | 70 | 310 | 16.0 | 26.0 | 0.00 | 0.00 | 0.00 | 31 | 998.4 |
| 20260508221319 | 71 | 309 | 15.0 | 25.0 | 0.00 | 0.00 | 0.00 | 31 | 998.3 |
| 20260508220242 | 71 | 278 | 14.0 | 24.0 | 0.00 | 0.00 | 0.00 | 30 | 998.4 |
| 20260508220008 | 70 | 285 | 15.0 | 25.0 | 0.00 | 0.00 | 0.00 | 29 | 998.4 |
| 20260508215231 | 70 | 276 | 12.0 | 24.0 | 0.00 | 0.00 | 0.00 | 29 | 998.6 |
| 20260508214602 | 70 | 274 | 11.0 | 15.0 | 0.00 | 0.00 | 0.00 | 29 | 998.7 |
| 20260508214253 | 70 | 281 | 10.0 | 16.0 | 0.00 | 0.00 | 0.00 | 28 | 998.6 |
| 20260508213255 | 70 | 285 | 12.0 | 19.0 | 0.00 | 0.00 | 0.00 | 30 | 998.8 |
| 20260508213003 | 70 | 283 | 12.0 | 20.0 | 0.00 | 0.00 | 0.00 | 27 | 998.8 |
| 20260508212259 | 70 | 308 | 11.0 | 19.0 | 0.00 | 0.00 | 0.00 | 28 | 998.8 |
| 20260508211605 | 70 | 269 | 10.0 | 16.0 | 0.00 | 0.00 | 0.00 | 28 | 999.0 |
| 20260508211247 | 70 | 259 | 10.0 | 23.0 | 0.00 | 0.00 | 0.00 | 31 | 999.0 |
| 20260508210246 | 70 | 286 | 13.0 | 23.0 | 0.00 | 0.00 | 0.00 | 30 | 999.2 |
| 20260508210004 | 69 | 304 | 18.0 | 24.0 | 0.00 | 0.00 | 0.00 | 28 | 999.3 |
| 20260508205212 | 70 | 289 | 12.0 | 17.0 | 0.00 | 0.00 | 0.00 | 28 | 999.2 |
| 20260508204608 | 69 | 271 | 12.0 | 18.0 | 0.00 | 0.00 | 0.00 | 29 | 999.4 |
| 20260508204215 | 70 | 341 | 11.0 | 23.0 | 0.00 | 0.00 | 0.00 | 29 | 999.4 |
| 20260508203236 | 70 | 276 | 14.0 | 23.0 | 0.00 | 0.00 | 0.00 | 27 | 999.6 |
| 20260508203002 | 69 | 278 | 16.0 | 24.0 | 0.00 | 0.00 | 0.00 | 27 | 999.7 |
| 20260508202248 | 70 | 232 | 10.0 | 15.0 | 0.00 | 0.00 | 0.00 | 28 | 999.8 |
| 20260508201601 | 69 | 284 | 10.0 | 18.0 | 0.00 | 0.00 | 0.00 | 27 | 1000.0 |
| 20260508201252 | 69 | 285 | 11.0 | 20.0 | 0.00 | 0.00 | 0.00 | 27 | 1000.0 |
| 20260508200002 | 68 | 260 | 8.0 | 23.0 | 0.00 | 0.00 | 0.00 | 26 | 1000.2 |
| 20260508195139 | 69 | 290 | 17.0 | 24.0 | 0.00 | 0.00 | 0.00 | 27 | 1000.4 |
| 20260508194604 | 69 | 285 | 16.0 | 25.0 | 0.00 | 0.00 | 0.00 | 25 | 1000.4 |
| 20260508193004 | 69 | 281 | 14.0 | 26.0 | 0.00 | 0.00 | 0.00 | 27 | 1000.8 |
| 20260508193002 | 69 | 269 | 16.0 | 25.0 | 0.00 | 0.00 | 0.00 | 27 | 1000.8 |
| 20260508191601 | 68 | 317 | 13.0 | 23.0 | 0.00 | 0.00 | 0.00 | 28 | 1001.0 |
| 20260508190843 | 70 | 257 | 16.0 | 29.0 | 0.00 | 0.00 | 0.00 | 28 | 1000.9 |
| 20260508190004 | 68 | 269 | 13.0 | 23.0 | 0.00 | 0.00 | 0.00 | 25 | 1001.1 |
| 20260508184759 | 69 | 307 | 13.0 | 30.0 | 0.00 | 0.00 | 0.00 | 29 | 1001.1 |
| 20260508184603 | 68 | 280 | 13.0 | 23.0 | 0.00 | 0.00 | 0.00 | 29 | 1001.3 |
| 20260508183809 | 68 | 304 | 19.0 | 30.0 | 0.00 | 0.00 | 0.00 | 27 | 1001.3 |
| 20260508183007 | 68 | 259 | 21.0 | 31.0 | 0.00 | 0.00 | 0.00 | 28 | 1001.4 |
| 20260508181617 | 68 | 312 | 10.0 | 28.0 | 0.00 | 0.00 | 0.00 | 29 | 1001.5 |
| 20260508181611 | 67 | 304 | 11.0 | 24.0 | 0.00 | 0.00 | 0.00 | 29 | 1001.6 |
| 20260508180628 | 67 | 290 | 18.0 | 28.0 | 0.00 | 0.00 | 0.00 | 27 | 1001.9 |
| 20260508180003 | 67 | 293 | 22.0 | 29.0 | 0.00 | 0.00 | 0.00 | 26 | 1002.0 |
| 20260508175627 | 68 | 284 | 14.0 | 27.0 | 0.00 | 0.00 | 0.00 | 26 | 1001.9 |
| 20260508174620 | 67 | 288 | 17.0 | 23.0 | 0.00 | 0.00 | 0.00 | 25 | 1002.2 |
| 20260508173503 | 67 | 278 | 14.0 | 24.0 | 0.00 | 0.00 | 0.00 | 26 | 1002.5 |
| 20260508173002 | 66 | 280 | 12.0 | 22.0 | 0.00 | 0.00 | 0.00 | 27 | 1002.5 |
| 20260508172521 | 66 | 281 | 12.0 | 27.0 | 0.00 | 0.00 | 0.00 | 27 | 1002.6 |
| 20260508171603 | 66 | 279 | 13.0 | 28.0 | 0.00 | 0.00 | 0.00 | 27 | 1002.8 |
| 20260508171450 | 67 | 253 | 14.0 | 27.0 | 0.00 | 0.00 | 0.00 | 30 | 1002.8 |
| 20260508170417 | 67 | 282 | 12.0 | 21.0 | 0.00 | 0.00 | 0.00 | 30 | 1002.9 |
| 20260508170002 | 65 | 287 | 17.0 | 22.0 | 0.00 | 0.00 | 0.00 | 28 | 1003.1 |
| 20260508165349 | 65 | 290 | 12.0 | 19.0 | 0.00 | 0.00 | 0.00 | 30 | 1003.1 |
| 20260508164602 | 64 | 311 | 13.0 | 20.0 | 0.00 | 0.00 | 0.00 | 30 | 1003.4 |
| 20260508164358 | 65 | 294 | 12.0 | 21.0 | 0.00 | 0.00 | 0.00 | 31 | 1003.3 |
| 20260508163406 | 65 | 290 | 12.0 | 21.0 | 0.00 | 0.00 | 0.00 | 29 | 1003.5 |
| 20260508163003 | 64 | 292 | 12.0 | 18.0 | 0.00 | 0.00 | 0.00 | 32 | 1003.6 |
| 20260508162427 | 64 | 305 | 11.0 | 20.0 | 0.00 | 0.00 | 0.00 | 32 | 1003.5 |
| 20260508161602 | 63 | 308 | 13.0 | 21.0 | 0.00 | 0.00 | 0.00 | 32 | 1003.7 |
| 20260508161419 | 64 | 266 | 7.0 | 12.0 | 0.00 | 0.00 | 0.00 | 35 | 1003.6 |
| 20260508160432 | 62 | 272 | 10.0 | 15.0 | 0.00 | 0.00 | 0.00 | 35 | 1003.9 |
| 20260508160002 | 62 | 269 | 9.0 | 17.0 | 0.00 | 0.00 | 0.00 | 37 | 1004.1 |
| 20260508154603 | 62 | 278 | 12.0 | 21.0 | 0.00 | 0.00 | 0.00 | 34 | 1004.1 |
| 20260508154324 | 63 | 288 | 11.0 | 20.0 | 0.00 | 0.00 | 0.00 | 34 | 1004.0 |
| 20260508153338 | 61 | 235 | 12.0 | 18.0 | 0.00 | 0.00 | 0.00 | 37 | 1004.2 |
| 20260508153003 | 61 | 276 | 12.0 | 19.0 | 0.00 | 0.00 | 0.00 | 36 | 1004.3 |
| 20260508152313 | 61 | 266 | 11.0 | 18.0 | 0.00 | 0.00 | 0.00 | 38 | 1004.3 |
| 20260508151604 | 60 | 233 | 10.0 | 17.0 | 0.00 | 0.00 | 0.00 | 39 | 1004.4 |
| 20260508150148 | 59 | 232 | 10.0 | 16.0 | 0.00 | 0.00 | 0.00 | 38 | 1004.6 |
| 20260508150004 | 59 | 233 | 10.0 | 16.0 | 0.00 | 0.00 | 0.00 | 41 | 1004.6 |
| 20260508145209 | 58 | 243 | 11.0 | 16.0 | 0.00 | 0.00 | 0.00 | 39 | 1004.7 |
| 20260508144608 | 57 | 238 | 10.0 | 16.0 | 0.00 | 0.00 | 0.00 | 39 | 1004.8 |
| 20260508144221 | 58 | 255 | 11.0 | 15.0 | 0.00 | 0.00 | 0.00 | 39 | 1004.8 |
| 20260508143241 | 57 | 232 | 10.0 | 15.0 | 0.00 | 0.00 | 0.00 | 41 | 1004.9 |
| 20260508143003 | 56 | 246 | 11.0 | 15.0 | 0.00 | 0.00 | 0.00 | 42 | 1004.9 |
| 20260508141606 | 55 | 238 | 13.0 | 18.0 | 0.00 | 0.00 | 0.00 | 41 | 1004.9 |
| 20260508141104 | 56 | 240 | 11.0 | 17.0 | 0.00 | 0.00 | 0.00 | 42 | 1004.9 |
| 20260508140115 | 55 | 235 | 13.0 | 18.0 | 0.00 | 0.00 | 0.00 | 42 | 1005.0 |
| 20260508140005 | 55 | 230 | 13.0 | 19.0 | 0.00 | 0.00 | 0.00 | 42 | 1005.1 |
| 20260508135048 | 55 | 240 | 11.0 | 19.0 | 0.00 | 0.00 | 0.00 | 44 | 1005.1 |
| 20260508134617 | 54 | 219 | 11.0 | 20.0 | 0.00 | 0.00 | 0.00 | 44 | 1005.2 |
| 20260508134031 | 54 | 226 | 11.0 | 19.0 | 0.00 | 0.00 | 0.00 | 44 | 1005.2 |
| 20260508133049 | 54 | 236 | 12.0 | 17.0 | 0.00 | 0.00 | 0.00 | 44 | 1005.2 |
| 20260508133001 | 53 | 231 | 13.0 | 16.0 | 0.00 | 0.00 | 0.00 | 44 | 1005.3 |
| 20260508132102 | 53 | 221 | 11.0 | 17.0 | 0.00 | 0.00 | 0.00 | 45 | 1005.2 |
| 20260508131603 | 52 | 223 | 13.0 | 18.0 | 0.00 | 0.00 | 0.00 | 45 | 1005.4 |
| 20260508131042 | 52 | 233 | 9.0 | 13.0 | 0.00 | 0.00 | 0.00 | 45 | 1005.3 |
| 20260508130041 | 51 | 214 | 10.0 | 15.0 | 0.00 | 0.00 | 0.00 | 46 | 1005.4 |
| 20260508130005 | 50 | 225 | 10.0 | 16.0 | 0.00 | 0.00 | 0.00 | 47 | 1005.4 |
| 20260508125057 | 50 | 229 | 10.0 | 15.0 | 0.00 | 0.00 | 0.00 | 46 | 1005.5 |
| 20260508124604 | 49 | 226 | 11.0 | 16.0 | 0.00 | 0.00 | 0.00 | 46 | 1005.5 |
| 20260508124105 | 49 | 224 | 10.0 | 13.0 | 0.00 | 0.00 | 0.00 | 48 | 1005.4 |
| 20260508123003 | 48 | 229 | 10.0 | 15.0 | 0.00 | 0.00 | 0.00 | 47 | 1005.5 |
| 20260508121602 | 47 | 221 | 11.0 | 15.0 | 0.00 | 0.00 | 0.00 | 48 | 1005.5 |
| 20260508120903 | 47 | 221 | 9.0 | 13.0 | 0.00 | 0.00 | 0.00 | 50 | 1005.4 |
| 20260508120003 | 46 | 230 | 9.0 | 12.0 | 0.00 | 0.00 | 0.00 | 51 | 1005.4 |
| 20260508115845 | 47 | 217 | 8.0 | 11.0 | 0.00 | 0.00 | 0.00 | 50 | 1005.3 |
| 20260508114812 | 45 | 199 | 6.0 | 9.0 | 0.00 | 0.00 | 0.00 | 52 | 1005.3 |
| 20260508114601 | 45 | 224 | 6.0 | 10.0 | 0.00 | 0.00 | 0.00 | 51 | 1005.4 |
| 20260508113748 | 45 | 201 | 6.0 | 9.0 | 0.00 | 0.00 | 0.00 | 52 | 1005.4 |
| 20260508113003 | 44 | 214 | 6.0 | 10.0 | 0.00 | 0.00 | 0.00 | 53 | 1005.5 |
| 20260508112803 | 44 | 221 | 6.0 | 10.0 | 0.00 | 0.00 | 0.00 | 53 | 1005.4 |
| 20260508111800 | 43 | 212 | 5.0 | 10.0 | 0.00 | 0.00 | 0.00 | 54 | 1005.5 |
| 20260508111603 | 43 | 219 | 7.0 | 11.0 | 0.00 | 0.00 | 0.00 | 54 | 1005.6 |
| 20260508110743 | 43 | 216 | 5.0 | 7.0 | 0.00 | 0.00 | 0.00 | 54 | 1005.5 |
| 20260508110008 | 42 | 212 | 5.0 | 7.0 | 0.00 | 0.00 | 0.00 | 54 | 1005.5 |
| 20260508105802 | 43 | 210 | 4.0 | 6.0 | 0.00 | 0.00 | 0.00 | 55 | 1005.5 |
| 20260508104759 | 42 | 211 | 3.0 | 5.0 | 0.00 | 0.00 | 0.00 | 55 | 1005.5 |
| 20260508104607 | 42 | 212 | 4.0 | 6.0 | 0.00 | 0.00 | 0.00 | 55 | 1005.6 |
| 20260508103735 | 43 | 210 | 4.0 | 5.0 | 0.00 | 0.00 | 0.00 | 54 | 1005.5 |
| 20260508103002 | 42 | 205 | 4.0 | 5.0 | 0.00 | 0.00 | 0.00 | 54 | 1005.6 |
| 20260508102714 | 43 | 211 | 3.0 | 4.0 | 0.00 | 0.00 | 0.00 | 54 | 1005.5 |
| 20260508101646 | 43 | 199 | 3.0 | 4.0 | 0.00 | 0.00 | 0.00 | 54 | 1005.7 |
| 20260508101602 | 42 | 206 | 3.0 | 5.0 | 0.00 | 0.00 | 0.00 | 54 | 1005.7 |
| 20260508100003 | 43 | 196 | 4.0 | 5.0 | 0.00 | 0.00 | 0.00 | 54 | 1005.7 |
| 20260508095538 | 43 | 202 | 3.0 | 4.0 | 0.00 | 0.00 | 0.00 | 53 | 1005.7 |
| 20260508094617 | 43 | 200 | 4.0 | 5.0 | 0.00 | 0.00 | 0.00 | 53 | 1005.7 |
| 20260508093403 | 44 | 196 | 4.0 | 6.0 | 0.00 | 0.00 | 0.00 | 52 | 1005.7 |
| 20260508093003 | 43 | 201 | 4.0 | 7.0 | 0.00 | 0.00 | 0.00 | 52 | 1005.8 |
| 20260508092340 | 44 | 196 | 5.0 | 6.0 | 0.00 | 0.00 | 0.00 | 51 | 1005.7 |
| 20260508091605 | 43 | 202 | 5.0 | 6.0 | 0.00 | 0.00 | 0.00 | 51 | 1005.8 |
| 20260508091335 | 44 | 207 | 4.0 | 5.0 | 0.00 | 0.00 | 0.00 | 51 | 1005.8 |
| 20260508090322 | 44 | 205 | 4.0 | 7.0 | 0.00 | 0.00 | 0.00 | 52 | 1005.8 |
| 20260508090004 | 43 | 213 | 5.0 | 7.0 | 0.00 | 0.00 | 0.00 | 52 | 1005.9 |
| 20260508085250 | 44 | 198 | 5.0 | 7.0 | 0.00 | 0.00 | 0.00 | 52 | 1005.8 |
| 20260508084602 | 44 | 192 | 5.0 | 8.0 | 0.00 | 0.00 | 0.00 | 52 | 1005.8 |
| 20260508084224 | 44 | 212 | 4.0 | 6.0 | 0.00 | 0.00 | 0.00 | 53 | 1005.8 |
| 20260508083225 | 44 | 193 | 4.0 | 6.0 | 0.00 | 0.00 | 0.00 | 53 | 1005.8 |
| 20260508083002 | 44 | 200 | 4.0 | 7.0 | 0.00 | 0.00 | 0.00 | 52 | 1005.9 |
| 20260508082157 | 45 | 186 | 3.0 | 6.0 | 0.00 | 0.00 | 0.00 | 51 | 1005.9 |
| 20260508081506 | 44 | 178 | 4.0 | 8.0 | 0.00 | 0.00 | 0.00 | 51 | 1006.0 |
| 20260508081209 | 45 | 203 | 4.0 | 7.0 | 0.00 | 0.00 | 0.00 | 51 | 1006.0 |
| 20260508080144 | 45 | 199 | 4.0 | 7.0 | 0.00 | 0.00 | 0.00 | 52 | 1006.0 |
| 20260508075145 | 45 | 188 | 3.0 | 5.0 | 0.00 | 0.00 | 0.00 | 51 | 1006.1 |
| 20260508074503 | 44 | 179 | 3.0 | 6.0 | 0.00 | 0.00 | 0.00 | 51 | 1006.2 |
| 20260508074202 | 45 | 164 | 2.0 | 5.0 | 0.00 | 0.00 | 0.00 | 51 | 1006.1 |
| 20260508073148 | 44 | 200 | 3.0 | 5.0 | 0.00 | 0.00 | 0.00 | 52 | 1006.2 |
| 20260508073104 | 44 | 146 | 2.0 | 6.0 | 0.00 | 0.00 | 0.00 | 52 | 1006.3 |
| 20260508072135 | 44 | 202 | 2.0 | 7.0 | 0.00 | 0.00 | 0.00 | 52 | 1006.3 |
| 20260508071505 | 44 | 167 | 3.0 | 8.0 | 0.00 | 0.00 | 0.00 | 52 | 1006.3 |
| 20260508071058 | 44 | 158 | 3.0 | 7.0 | 0.00 | 0.00 | 0.00 | 52 | 1006.3 |
| 20260508070104 | 44 | 161 | 3.0 | 6.0 | 0.00 | 0.00 | 0.00 | 53 | 1006.5 |
| 20260508070057 | 44 | 186 | 2.0 | 6.0 | 0.00 | 0.00 | 0.00 | 53 | 1006.4 |
| 20260508065100 | 45 | 167 | 2.0 | 6.0 | 0.00 | 0.00 | 0.00 | 52 | 1006.4 |
| 20260508064506 | 44 | 172 | 3.0 | 7.0 | 0.00 | 0.00 | 0.00 | 52 | 1006.5 |
| 20260508064031 | 44 | 159 | 1.0 | 3.0 | 0.00 | 0.00 | 0.00 | 53 | 1006.5 |
| 20260508063032 | 44 | 178 | 1.0 | 3.0 | 0.00 | 0.00 | 0.00 | 53 | 1006.6 |
| 20260508063009 | 43 | 184 | 1.0 | 4.0 | 0.00 | 0.00 | 0.00 | 53 | 1006.6 |
| 20260508061603 | 43 | 172 | 1.0 | 4.0 | 0.00 | 0.00 | 0.00 | 54 | 1006.7 |
| 20260508060942 | 43 | 155 | 1.0 | 3.0 | 0.00 | 0.00 | 0.00 | 55 | 1006.8 |
| 20260508060001 | 43 | 205 | 1.0 | 2.0 | 0.00 | 0.00 | 0.00 | 56 | 1006.9 |
| 20260508055915 | 43 | 208 | 0.0 | 2.0 | 0.00 | 0.00 | 0.00 | 56 | 1006.9 |
| 20260508054911 | 44 | 152 | 0.0 | 2.0 | 0.00 | 0.00 | 0.00 | 57 | 1006.8 |
| 20260508054603 | 43 | 165 | 0.0 | 3.0 | 0.00 | 0.00 | 0.00 | 57 | 1006.9 |
| 20260508053914 | 44 | 203 | 0.0 | 1.0 | 0.00 | 0.00 | 0.00 | 58 | 1006.9 |
| 20260508053005 | 43 | 210 | 1.0 | 2.0 | 0.00 | 0.00 | 0.00 | 57 | 1007.0 |
| 20260508052936 | 44 | 210 | 0.0 | 2.0 | 0.00 | 0.00 | 0.00 | 57 | 1007.0 |
| 20260508051603 | 43 | 188 | 1.0 | 3.0 | 0.00 | 0.00 | 0.00 | 56 | 1007.0 |
| 20260508050800 | 44 | 204 | 1.0 | 3.0 | 0.00 | 0.00 | 0.00 | 56 | 1007.1 |
| 20260508050001 | 43 | 196 | 2.0 | 3.0 | 0.00 | 0.00 | 0.00 | 56 | 1007.0 |
| 20260508045746 | 43 | 165 | 1.0 | 2.0 | 0.00 | 0.00 | 0.00 | 56 | 1007.0 |
| 20260508044718 | 43 | 200 | 0.0 | 1.0 | 0.00 | 0.00 | 0.00 | 58 | 1007.1 |
| 20260508044604 | 43 | 200 | 1.0 | 1.0 | 0.00 | 0.00 | 0.00 | 58 | 1007.2 |
| 20260508043718 | 44 | 211 | 0.0 | 0.0 | 0.00 | 0.00 | 0.00 | 57 | 1007.2 |
| 20260508043002 | 43 | 152 | 0.0 | 1.0 | 0.00 | 0.00 | 0.00 | 58 | 1007.2 |
| 20260508042731 | 44 | 152 | 0.0 | 0.0 | 0.00 | 0.00 | 0.00 | 58 | 1007.2 |
| 20260508041729 | 45 | 151 | 0.0 | 3.0 | 0.00 | 0.00 | 0.00 | 57 | 1007.3 |
| 20260508041502 | 45 | 162 | 0.0 | 3.0 | 0.00 | 0.00 | 0.00 | 56 | 1007.4 |
| 20260508040654 | 45 | 160 | 1.0 | 3.0 | 0.00 | 0.00 | 0.00 | 57 | 1007.3 |
| 20260508040104 | 44 | 172 | 1.0 | 3.0 | 0.00 | 0.00 | 0.00 | 58 | 1007.5 |
| 20260508035621 | 44 | 210 | 0.0 | 1.0 | 0.00 | 0.00 | 0.00 | 57 | 1007.4 |
| 20260508034559 | 44 | 210 | 0.0 | 0.0 | 0.00 | 0.00 | 0.00 | 54 | 1007.4 |
| 20260508034501 | 44 | 210 | 0.0 | 1.0 | 0.00 | 0.00 | 0.00 | 53 | 1007.5 |
| 20260508033614 | 45 | 210 | 0.0 | 0.0 | 0.00 | 0.00 | 0.00 | 52 | 1007.5 |
| 20260508033105 | 44 | 210 | 0.0 | 3.0 | 0.00 | 0.00 | 0.00 | 52 | 1007.6 |
| 20260508032559 | 45 | 210 | 0.0 | 2.0 | 0.00 | 0.00 | 0.00 | 52 | 1007.5 |
| 20260508031608 | 45 | 218 | 0.0 | 0.0 | 0.00 | 0.00 | 0.00 | 51 | 1007.6 |
| 20260508031503 | 44 | 217 | 0.0 | 1.0 | 0.00 | 0.00 | 0.00 | 51 | 1007.6 |
| 20260508030104 | 45 | 218 | 1.0 | 2.0 | 0.00 | 0.00 | 0.00 | 50 | 1007.7 |
| 20260508025421 | 46 | 218 | 0.0 | 1.0 | 0.00 | 0.00 | 0.00 | 49 | 1007.6 |
| 20260508024503 | 46 | 221 | 0.0 | 1.0 | 0.00 | 0.00 | 0.00 | 47 | 1007.7 |
| 20260508024355 | 47 | 221 | 0.0 | 0.0 | 0.00 | 0.00 | 0.00 | 46 | 1007.6 |
| 20260508023101 | 47 | 221 | 0.0 | 2.0 | 0.00 | 0.00 | 0.00 | 48 | 1007.6 |
| 20260508022218 | 48 | 221 | 0.0 | 0.0 | 0.00 | 0.00 | 0.00 | 46 | 1007.5 |
| 20260508021501 | 48 | 343 | 0.0 | 0.0 | 0.00 | 0.00 | 0.00 | 44 | 1007.4 |
| 20260508021224 | 49 | 343 | 0.0 | 0.0 | 0.00 | 0.00 | 0.00 | 44 | 1007.4 |
| 20260508020106 | 49 | 343 | 0.0 | 1.0 | 0.00 | 0.00 | 0.00 | 43 | 1007.3 |
| 20260508015118 | 51 | 343 | 0.0 | 0.0 | 0.00 | 0.00 | 0.00 | 42 | 1007.1 |
| 20260508014503 | 51 | 343 | 0.0 | 0.0 | 0.00 | 0.00 | 0.00 | 41 | 1007.0 |
| 20260508014128 | 52 | 343 | 0.0 | 0.0 | 0.00 | 0.00 | 0.00 | 40 | 1007.0 |
| 20260508013119 | 53 | 343 | 0.0 | 0.0 | 0.00 | 0.00 | 0.00 | 38 | 1006.9 |
| 20260508013102 | 52 | 343 | 0.0 | 0.0 | 0.00 | 0.00 | 0.00 | 38 | 1007.0 |
| 20260508012101 | 53 | 343 | 0.0 | 0.0 | 0.00 | 0.00 | 0.00 | 39 | 1006.9 |
| 20260508011502 | 53 | 343 | 0.0 | 3.0 | 0.00 | 0.00 | 0.00 | 38 | 1006.9 |
| 20260508011046 | 55 | 343 | 1.0 | 2.0 | 0.00 | 0.00 | 0.00 | 38 | 1006.9 |
| 20260508010106 | 55 | 335 | 1.0 | 4.0 | 0.00 | 0.00 | 0.00 | 35 | 1006.8 |
| 20260508010045 | 56 | 335 | 2.0 | 4.0 | 0.00 | 0.00 | 0.00 | 35 | 1006.8 |